Flag for U.S.A. Weather past 2 weeks in Decatur, Illinois, U.S.A.

Now
67 °F

Passing clouds.


Feels Like: 67 °F
Forecast: 56 / 71 °F
Wind: 13 mph from Southwest

Location: Decatur Airport


UV Index: 0 (Low)

Visibility: 10 mi


Pressure: 29.98 "Hg

Humidity: 55%

Dew point: 50 °F

Location of DecaturLocation

Historic Weather in Decatur

°F

Decatur temperature yesterday

Maximum temperature yesterday: 78 °F (at 3:54 PM)
Minimum temperature yesterday: 41 °F (at 4:54 AM)
Average temperature yesterday: 61 °F

Past Weeks' High & Low Weather Summary

 TemperatureHumidityPressure
High78 °F (Apr 12, 1:54 PM)93% (Apr 7, 1:54 PM)30.33 "Hg (Apr 7, 1:54 PM)
Low30 °F (Apr 15, 5:54 AM)16% (Apr 11, 3:54 PM)29.43 "Hg (Apr 14, 12:54 AM)
Average54 °F59%30.00 "Hg
* Reported Apr 6 9:54 AM — Apr 21 9:54 AM, Decatur, Weather by CustomWeather, © 2014

Note: Actual official high and low records may vary slightly from our data, if they occured in-between our weather recording intervals... More about our weather records

Advertising

Historic Weather Conditions — Data for Previous 24 hours

 ConditionsComfort  
Time TempWeatherWind HumidityBarometerVisibility
9:54 AM
Apr 21
70 °FSunny.9 mph51%29.98 "Hg10 mi
8:54 AM67 °FSunny.9 mph51%29.99 "Hg10 mi
7:54 AM63 °FSunny.10 mph58%29.99 "Hg10 mi
6:54 AM59 °FClear.8 mph64%29.98 "Hg10 mi
5:54 AM59 °FClear.8 mph62%29.99 "Hg10 mi
4:54 AM59 °FClear.8 mph60%29.99 "Hg10 mi
3:54 AM59 °FClear.8 mph60%30.00 "Hg10 mi
2:54 AM60 °FClear.9 mph56%30.01 "Hg10 mi
1:54 AM60 °FClear.8 mph56%30.03 "Hg10 mi
12:54 AM62 °FClear.9 mph52%30.04 "Hg10 mi
11:54 PM
Apr 20
60 °FClear.7 mph56%30.04 "Hg10 mi
10:54 PM59 °FClear.6 mph58%30.05 "Hg10 mi
9:54 PM58 °FClear.3 mph58%30.07 "Hg10 mi
8:54 PM64 °FClear.6 mph47%30.07 "Hg10 mi
7:54 PM68 °FSunny.5 mph39%30.07 "Hg10 mi
6:54 PM73 °FSunny.9 mph33%30.08 "Hg10 mi
5:54 PM75 °FSunny.13 mph30%30.08 "Hg10 mi
4:54 PM77 °FSunny.10 mph29%30.09 "Hg10 mi
3:54 PM78 °FSunny.13 mph28%30.10 "Hg10 mi
2:54 PM77 °FSunny.9 mph29%30.12 "Hg10 mi
1:54 PM76 °FSunny.9 mph29%30.14 "Hg10 mi
12:54 PM75 °FSunny.9 mph30%30.16 "Hg10 mi
11:54 AM74 °FSunny.13 mph31%30.19 "Hg10 mi
Weather by CustomWeather, © 2014

See weather overview